Total_Precipitation_Accumulation
1.19 1.23 1.20 1.27 1.36 1.61 1.82 1.77 1.57 1.53 1.54 1.53 1.50 1.57 1.72 1.85 1.96 2.08 2.13 2.13 2.13 2.26 2.20 2.15 2.23 2.35 2.60 2.56 2.61 2.60 2.50 2.43 2.38 2.15 1.79 1.77 2.01 2.12 2.03 1.82 1.66 1.65 1.50
0.99 1.05 1.12 1.13 1.23 1.34 1.46 1.49 1.41 1.29 1.25 1.31 1.36 1.36 1.44 1.65 1.79 1.81 1.84 1.84 1.88 1.97 2.04 1.99 2.02 2.11 2.24 2.44 2.54 2.53 2.54 2.48 2.47 2.41 2.06 1.87 1.83 1.96 2.04 2.00 1.75 1.61 1.53
0.92 1.00 1.10 1.08 1.08 1.09 1.13 1.09 1.11 1.09 1.13 1.16 1.27 1.32 1.39 1.48 1.65 1.66 1.68 1.64 1.64 1.68 1.80 1.87 1.93 1.98 2.02 2.15 2.11 2.19 2.32 2.49 2.57 2.48 2.31 2.10 1.93 1.91 1.99 1.95 1.88 1.91 1.67
1.01 1.09 1.16 1.16 1.16 1.15 1.12 1.09 1.10 1.10 1.13 1.22 1.38 1.44 1.45 1.47 1.48 1.52 1.60 1.60 1.48 1.41 1.47 1.51 1.64 1.76 1.80 1.99 1.95 1.95 2.11 2.36 2.63 2.63 2.49 2.26 2.12 2.06 2.02 1.97 2.02 2.01 1.91
0.89 1.02 1.09 1.16 1.23 1.16 1.05 1.00 1.05 1.03 1.01 1.15 1.29 1.43 1.46 1.45 1.42 1.49 1.58 1.61 1.55 1.37 1.30 1.31 1.37 1.51 1.77 1.87 1.82 2.02 2.18 2.23 2.38 2.52 2.50 2.42 2.27 2.11 1.97 1.87 1.94 2.00 2.02
0.81 0.92 1.11 1.19 1.13 1.07 0.97 0.95 0.96 0.93 0.91 1.00 1.13 1.30 1.40 1.37 1.77 1.77 1.57 1.54 1.52 1.38 1.25 1.23 1.20 1.20 1.41 1.70 1.85 1.98 2.12 2.21 2.26 2.30 2.34 2.27 2.21 2.15 2.20 2.15 2.04 1.96 1.92
0.76 0.90 1.11 1.14 1.06 0.99 1.02 1.03 0.96 0.92 0.94 1.01 1.05 1.05 1.14 1.44 1.50 1.25 1.28 1.30 1.42 1.34 1.21 1.12 1.02 0.99 1.14 1.24 1.40 1.53 1.73 2.04 2.25 2.29 2.18 2.04 2.13 2.11 2.17 2.20 2.11 2.02 1.90
0.67 0.79 0.97 1.02 1.00 1.03 1.02 0.99 0.90 0.84 0.84 0.88 0.91 0.94 1.00 1.14 1.15 1.06 1.15 1.08 1.22 1.23 1.13 1.08 1.06 1.04 1.08 1.14 1.29 1.43 1.43 1.51 1.75 1.81 1.82 1.85 1.92 2.09 2.16 2.20 2.26 2.19 2.14
0.53 0.65 0.76 0.79 0.86 0.88 0.85 0.88 0.84 0.76 0.75 0.77 0.80 0.87 0.96 0.95 0.97 0.95 1.02 1.12 1.25 1.21 1.09 1.08 1.06 1.03 1.23 1.32 1.29 1.36 1.45 1.42 1.56 1.73 1.93 1.91 1.82 1.83 1.95 2.02 2.15 2.19 2.17
0.44 0.56 0.65 0.68 0.70 0.73 0.79 0.82 0.83 0.78 0.74 0.74 0.77 0.78 0.83 0.88 1.01 0.88 0.96 1.14 1.25 1.27 1.23 1.13 1.23 1.20 1.32 1.31 1.25 1.39 1.45 1.29 1.22 1.34 1.50 1.55 1.46 1.48 1.67 1.69 1.90 2.06 1.98
0.35 0.45 0.54 0.57 0.64 0.73 0.82 0.84 0.89 0.85 0.80 0.78 0.82 0.83 0.79 0.87 1.02 0.98 1.00 1.04 1.24 1.30 1.32 1.25 1.11 1.19 1.18 1.23 1.29 1.36 1.55 1.41 1.28 1.34 1.46 1.44 1.32 1.31 1.38 1.45 1.58 1.85 1.92
0.25 0.32 0.46 0.54 0.61 0.71 0.83 0.88 0.87 0.88 0.88 0.88 0.87 0.88 0.84 0.84 0.90 0.94 0.97 1.02 1.12 1.16 1.25 1.23 1.16 1.23 1.10 1.08 1.10 1.23 1.52 1.46 1.31 1.33 1.38 1.38 1.31 1.22 1.27 1.30 1.39 1.50 1.63
0.20 0.24 0.32 0.39 0.44 0.54 0.64 0.76 0.82 0.82 0.82 0.83 0.89 0.97 0.98 0.90 0.96 1.07 0.93 0.91 0.97 0.99 1.02 1.14 1.12 1.09 1.02 0.95 1.03 1.15 1.28 1.40 1.41 1.33 1.26 1.23 1.22 1.21 1.26 1.23 1.25 1.34 1.37
0.21 0.24 0.26 0.29 0.31 0.37 0.52 0.60 0.65 0.70 0.75 0.82 0.89 1.00 1.10 1.05 0.98 0.95 0.89 0.88 0.91 0.86 0.81 0.82 0.84 0.87 0.87 0.86 0.92 0.98 1.10 1.28 1.41 1.33 1.20 1.20 1.22 1.24 1.27 1.20 1.20 1.27 1.31
0.21 0.22 0.23 0.25 0.29 0.34 0.41 0.54 0.61 0.67 0.72 0.78 0.85 0.99 1.07 1.08 1.09 1.18 1.14 1.07 1.02 0.99 0.94 0.84 0.78 0.81 0.88 0.94 0.95 0.94 1.01 1.13 1.24 1.23 1.18 1.15 1.18 1.23 1.22 1.16 1.15 1.19 1.23
0.26 0.24 0.25 0.27 0.30 0.33 0.39 0.48 0.54 0.56 0.58 0.61 0.66 0.72 0.81 0.88 0.94 0.95 0.98 0.98 0.95 0.93 1.00 1.00 0.97 1.01 1.02 1.00 1.01 0.95 0.91 0.96 1.08 1.16 1.16 1.11 1.08 1.13 1.19 1.18 1.17 1.18 1.19
0.36 0.33 0.31 0.30 0.34 0.39 0.40 0.42 0.49 0.51 0.53 0.55 0.57 0.63 0.70 0.75 0.76 0.77 0.82 0.88 0.91 0.90 0.98 0.97 0.90 0.85 0.85 0.84 0.86 0.86 0.86 0.85 0.90 1.01 1.06 1.07 1.03 1.06 1.16 1.20 1.20 1.25 1.25
0.27 0.30 0.32 0.35 0.35 0.38 0.43 0.50 0.57 0.63 0.58 0.51 0.51 0.58 0.60 0.62 0.65 0.68 0.74 0.76 0.70 0.68 0.71 0.79 0.76 0.72 0.69 0.70 0.71 0.69 0.72 0.75 0.78 0.84 0.92 0.97 1.02 1.06 1.11 1.17 1.20 1.20 1.22
0.25 0.29 0.37 0.41 0.39 0.39 0.47 0.58 0.63 0.65 0.63 0.55 0.46 0.45 0.48 0.48 0.54 0.60 0.64 0.64 0.61 0.54 0.54 0.61 0.66 0.66 0.63 0.59 0.57 0.57 0.58 0.60 0.63 0.70 0.79 0.84 0.90 0.96 1.01 1.07 1.12 1.18 1.20
0.31 0.36 0.44 0.48 0.45 0.46 0.50 0.51 0.50 0.54 0.54 0.50 0.48 0.49 0.49 0.45 0.44 0.48 0.52 0.53 0.55 0.53 0.53 0.57 0.58 0.59 0.58 0.58 0.55 0.53 0.55 0.58 0.60 0.65 0.73 0.83 0.88 0.89 0.89 0.94 1.03 1.08 1.07
0.39 0.39 0.40 0.47 0.47 0.46 0.47 0.45 0.47 0.50 0.48 0.46 0.47 0.49 0.51 0.46 0.45 0.45 0.46 0.46 0.47 0.51 0.52 0.53 0.54 0.59 0.58 0.57 0.56 0.57 0.56 0.57 0.58 0.63 0.67 0.71 0.75 0.80 0.84 0.87 0.89 0.94 0.99
0.39 0.39 0.38 0.45 0.49 0.44 0.42 0.44 0.49 0.51 0.51 0.48 0.46 0.46 0.48 0.44 0.44 0.45 0.46 0.49 0.49 0.51 0.52 0.51 0.53 0.57 0.60 0.59 0.58 0.59 0.61 0.60 0.60 0.63 0.67 0.68 0.70 0.72 0.76 0.78 0.81 0.85 0.89
0.42 0.41 0.40 0.43 0.44 0.42 0.41 0.44 0.49 0.53 0.51 0.49 0.48 0.47 0.45 0.43 0.42 0.44 0.49 0.56 0.61 0.59 0.55 0.51 0.54 0.59 0.62 0.63 0.61 0.61 0.62 0.60 0.59 0.62 0.66 0.69 0.71 0.75 0.77 0.79 0.80 0.86 0.91
0.44 0.45 0.47 0.49 0.48 0.51 0.54 0.53 0.51 0.51 0.52 0.51 0.48 0.47 0.45 0.42 0.43 0.44 0.49 0.56 0.61 0.60 0.59 0.56 0.55 0.59 0.65 0.67 0.68 0.65 0.61 0.61 0.59 0.60 0.64 0.68 0.71 0.72 0.74 0.78 0.82 0.84 0.91
0.46 0.47 0.49 0.53 0.53 0.54 0.58 0.57 0.53 0.51 0.53 0.56 0.57 0.52 0.49 0.46 0.45 0.45 0.47 0.53 0.56 0.56 0.56 0.57 0.61 0.64 0.66 0.65 0.65 0.67 0.78 0.77 0.70 0.66 0.65 0.70 0.73 0.73 0.77 0.81 0.85 0.89 0.94
0.46 0.48 0.53 0.60 0.61 0.60 0.61 0.62 0.59 0.56 0.57 0.59 0.62 0.65 0.62 0.56 0.52 0.51 0.52 0.54 0.55 0.54 0.55 0.56 0.59 0.62 0.64 0.65 0.64 0.68 0.73 0.70 0.70 0.72 0.69 0.70 0.76 0.82 0.87 0.90 0.93 0.99 1.07